,,,PA_Meas_PMT16A,,PR_Meas_QMR101_102,,RH_Meas_QMH101,,SR_Meas_QMS101,,TA_Meas_QMH101,,GenWind,,GenWind,
date,time,status,PA,status,PR,status,RH,status,SR,status,TA,status,DirAvg,status,SpdAvg,
2009-09-09, 00:00:04,VALID,1003.79,VALID,0,VALID,93.7132,VALID,0,VALID,24.2078,VALID,9,VALID,0.35625,
2009-09-09, 00:01:04,VALID,1003.81,VALID,0,VALID,93.6292,VALID,0,VALID,24.2078,VALID,9,VALID,0.405078,
2009-09-09, 00:02:04,VALID,1003.78,VALID,0,VALID,93.6216,VALID,0,VALID,24.2486,VALID,1,VALID,0.321484,
2009-09-09, 00:03:04,VALID,1003.78,VALID,0,VALID,93.5301,VALID,0,VALID,24.2875,VALID,350,VALID,0.415625,
2009-09-09, 00:04:04,VALID,1003.76,VALID,0,VALID,93.4004,VALID,0,VALID,24.2857,VALID,351,VALID,0.676953,
2009-09-09, 00:05:04,VALID,1003.72,VALID,0,VALID,93.1563,VALID,0,VALID,24.3441,VALID,352,VALID,0.753906,
2009-09-09, 00:06:04,VALID,1003.72,VALID,0,VALID,92.7367,VALID,0,VALID,24.4238,VALID,351,VALID,0.56875,
2009-09-09, 00:07:04,VALID,1003.69,VALID,0,VALID,92.2866,VALID,0,VALID,24.4822,VALID,351,VALID,0.419922,
2009-09-09, 00:08:04,VALID,1003.63,VALID,0,VALID,91.9128,VALID,0,VALID,24.5193,VALID,351,VALID,0.507422,
2009-09-09, 00:09:04,VALID,1003.63,VALID,0,VALID,91.5237,VALID,0,VALID,24.5796,VALID,351,VALID,0.410156,
2009-09-09, 00:10:04,VALID,1003.63,VALID,0,VALID,91.3177,VALID,0,VALID,24.5582,VALID,351,VALID,0.499609,
2009-09-09, 00:11:04,VALID,1003.63,VALID,0,VALID,91.0965,VALID,0,VALID,24.5972,VALID,348,VALID,0.742969,
2009-09-09, 00:12:04,VALID,1003.65,VALID,0,VALID,90.5701,VALID,0,VALID,24.6769,VALID,346,VALID,0.600391,
2009-09-09, 00:13:04,VALID,1003.66,VALID,0,VALID,89.9064,VALID,0,VALID,24.7529,VALID,346,VALID,0.439453,
2009-09-09, 00:14:04,VALID,1003.67,VALID,0,VALID,89.2426,VALID,0,VALID,24.8503,VALID,13,VALID,0.705859,
2009-09-09, 00:15:04,VALID,1003.68,VALID,0,VALID,88.7468,VALID,0,VALID,24.9495,VALID,358,VALID,0.295703,
2009-09-09, 00:16:04,VALID,1003.66,VALID,0,VALID,88.1822,VALID,0,VALID,25.0274,VALID,340,VALID,0.485156,
2009-09-09, 00:17:04,VALID,1003.64,VALID,0,VALID,87.3049,VALID,0.100563,VALID,25.1442,VALID,338,VALID,0.871875,
2009-09-09, 00:18:04,VALID,1003.64,VALID,0,VALID,86.5725,VALID,0,VALID,25.2981,VALID,348,VALID,0.56875,
2009-09-09, 00:19:04,VALID,1003.64,VALID,0,VALID,85.8478,VALID,0,VALID,25.4169,VALID,4,VALID,0.732813,
2009-09-09, 00:20:04,VALID,1003.63,VALID,0,VALID,85.5121,VALID,0,VALID,25.5123,VALID,2,VALID,0.271484,
2009-09-09, 00:21:04,VALID,1003.66,VALID,0,VALID,85.2146,VALID,0,VALID,25.5513,VALID,311,VALID,0.298828,
2009-09-09, 00:22:04,VALID,1003.67,VALID,0,VALID,84.7569,VALID,0,VALID,25.6097,VALID,353,VALID,0.635547,
2009-09-09, 00:23:04,VALID,1003.69,VALID,0,VALID,84.589,VALID,0,VALID,25.6486,VALID,359,VALID,0.357031,
2009-09-09, 00:24:04,VALID,1003.7,VALID,0,VALID,84.9323,VALID,0,VALID,25.6292,VALID,359,VALID,0.311719,
2009-09-09, 00:25:04,VALID,1003.72,VALID,0,VALID,85.1841,VALID,0,VALID,25.5513,VALID,359,VALID,0.157031,
2009-09-09, 00:26:04,VALID,1003.69,VALID,0,VALID,85.6266,VALID,0,VALID,25.4539,VALID,359,VALID,0.309766,
2009-09-09, 00:27:04,VALID,1003.73,VALID,0,VALID,86.1301,VALID,0,VALID,25.337,VALID,14,VALID,0.323047,
2009-09-09, 00:28:04,VALID,1003.71,VALID,0,VALID,86.5954,VALID,0,VALID,25.2611,VALID,14,VALID,0.282422,
2009-09-09, 00:29:04,VALID,1003.73,VALID,0,VALID,87.1294,VALID,0,VALID,25.1618,VALID,14,VALID,0.192578,
2009-09-09, 00:30:04,VALID,1003.72,VALID,0,VALID,87.3049,VALID,0,VALID,25.0839,VALID,14,VALID,0.20625,
2009-09-09, 00:31:04,VALID,1003.73,VALID,0,VALID,87.7016,VALID,0,VALID,25.0236,VALID,14,VALID,0.558594,
2009-09-09, 00:32:04,VALID,1003.75,VALID,0,VALID,88.1441,VALID,0,VALID,24.9282,VALID,14,VALID,0.195313,
2009-09-09, 00:33:04,VALID,1003.79,VALID,0,VALID,88.4645,VALID,0,VALID,24.9087,VALID,11,VALID,0.344531,
2009-09-09, 00:34:04,VALID,1003.85,VALID,0,VALID,88.6094,VALID,0,VALID,24.9106,VALID,11,VALID,0.361328,
2009-09-09, 00:35:04,VALID,1003.84,VALID,0,VALID,88.6628,VALID,0,VALID,24.8892,VALID,11,VALID,0.00195313,
2009-09-09, 00:36:04,VALID,1003.86,VALID,0,VALID,88.7162,VALID,0,VALID,24.8911,VALID,11,VALID,0.194531,
2009-09-09, 00:37:04,VALID,1003.85,VALID,0,VALID,88.907,VALID,0,VALID,24.8503,VALID,10,VALID,0.345703,
2009-09-09, 00:38:04,VALID,1003.88,VALID,0,VALID,89.0672,VALID,0,VALID,24.8132,VALID,10,VALID,0.345313,
2009-09-09, 00:39:04,VALID,1003.87,VALID,0,VALID,89.3113,VALID,0,VALID,24.6945,VALID,10,VALID,0.362109,
2009-09-09, 00:40:04,VALID,1003.9,VALID,0,VALID,89.5783,VALID,0,VALID,24.6574,VALID,3,VALID,0.34375,
2009-09-09, 00:41:04,VALID,1003.91,VALID,0,VALID,90.0513,VALID,0,VALID,24.6185,VALID,335,VALID,0.351563,
2009-09-09, 00:42:04,VALID,1003.94,VALID,0,VALID,90.2954,VALID,0,VALID,24.6185,VALID,347,VALID,0.447656,
2009-09-09, 00:43:04,VALID,1003.93,VALID,0,VALID,90.4404,VALID,0,VALID,24.5972,VALID,347,VALID,0.370313,
2009-09-09, 00:44:04,VALID,1003.95,VALID,0,VALID,90.6082,VALID,0,VALID,24.5388,VALID,347,VALID,0.255078,
2009-09-09, 00:45:04,VALID,1003.96,VALID,0,VALID,90.8371,VALID,0,VALID,24.5388,VALID,347,VALID,0.297656,
2009-09-09, 00:46:04,VALID,1003.97,VALID,0,VALID,90.9668,VALID,0,VALID,24.5406,VALID,347,VALID,0.125,
2009-09-09, 00:47:04,VALID,1003.94,VALID,0,VALID,91.0583,VALID,0,VALID,24.5406,VALID,347,VALID,0.123047,
2009-09-09, 00:48:04,VALID,1003.97,VALID,0,VALID,90.9897,VALID,0,VALID,24.5193,VALID,347,VALID,0,
2009-09-09, 00:49:04,VALID,1003.94,VALID,0,VALID,91.0125,VALID,0,VALID,24.5017,VALID,347,VALID,0,
2009-09-09, 00:50:04,VALID,1003.97,VALID,0,VALID,91.0354,VALID,0,VALID,24.4628,VALID,347,VALID,0,
2009-09-09, 00:51:04,VALID,1003.95,VALID,0,VALID,91.127,VALID,0,VALID,24.4433,VALID,347,VALID,0,
2009-09-09, 00:52:04,VALID,1003.94,VALID,0,VALID,91.0888,VALID,0,VALID,24.3636,VALID,347,VALID,0,
2009-09-09, 00:53:04,VALID,1003.97,VALID,0,VALID,91.1575,VALID,0,VALID,24.3459,VALID,347,VALID,0,
2009-09-09, 00:54:04,VALID,1003.96,VALID,0,VALID,91.3482,VALID,0,VALID,24.3459,VALID,347,VALID,0,
2009-09-09, 00:55:04,VALID,1003.96,VALID,0,VALID,91.5313,VALID,0,VALID,24.3052,VALID,347,VALID,0,
2009-09-09, 00:56:04,VALID,1003.92,VALID,0,VALID,91.6229,VALID,0,VALID,24.2662,VALID,347,VALID,0,
2009-09-09, 00:57:04,VALID,1003.95,VALID,0,VALID,91.6839,VALID,0,VALID,24.2078,VALID,347,VALID,0,
2009-09-09, 00:58:04,VALID,1003.94,VALID,0,VALID,91.7602,VALID,0,VALID,24.1884,VALID,347,VALID,0,
2009-09-09, 00:59:04,VALID,1003.94,VALID,0,VALID,91.8746,VALID,0,VALID,24.1902,VALID,347,VALID,0,
2009-09-09, 01:00:04,VALID,1003.94,VALID,0,VALID,92.0958,VALID,0,VALID,24.1494,VALID,347,VALID,0,
2009-09-09, 01:01:04,VALID,1003.94,VALID,0,VALID,92.2027,VALID,0,VALID,24.1494,VALID,347,VALID,0,
2009-09-09, 01:02:04,VALID,1003.92,VALID,0,VALID,92.3095,VALID,0,VALID,24.13,VALID,347,VALID,0.00429688,
2009-09-09, 01:03:04,VALID,1003.9,VALID,0,VALID,92.5002,VALID,0,VALID,24.1318,VALID,347,VALID,0.440625,
2009-09-09, 01:04:04,VALID,1003.88,VALID,0,VALID,92.5993,VALID,0,VALID,24.1318,VALID,347,VALID,0.574219,
2009-09-09, 01:05:04,VALID,1003.88,VALID,0,VALID,92.668,VALID,0,VALID,24.1105,VALID,347,VALID,0.501953,
2009-09-09, 01:06:04,VALID,1003.88,VALID,0,VALID,92.6299,VALID,0,VALID,24.1123,VALID,348,VALID,0.478125,
2009-09-09, 01:07:04,VALID,1003.91,VALID,0,VALID,92.6909,VALID,0,VALID,24.0716,VALID,349,VALID,0.566797,
2009-09-09, 01:08:04,VALID,1003.87,VALID,0,VALID,92.8358,VALID,0,VALID,24.0716,VALID,12,VALID,0.591797,
2009-09-09, 01:09:04,VALID,1003.88,VALID,0,VALID,92.9579,VALID,0,VALID,24.0521,VALID,12,VALID,0.525781,
2009-09-09, 01:10:04,VALID,1003.88,VALID,0,VALID,92.9961,VALID,0,VALID,24.0539,VALID,12,VALID,0.337109,
2009-09-09, 01:11:04,VALID,1003.87,VALID,0,VALID,93.1181,VALID,0,VALID,24.0539,VALID,12,VALID,0.360156,
2009-09-09, 01:12:04,VALID,1003.9,VALID,0,VALID,93.2173,VALID,0,VALID,24.0345,VALID,12,VALID,0.285937,
2009-09-09, 01:13:04,VALID,1003.89,VALID,0,VALID,93.3699,VALID,0,VALID,24.0734,VALID,12,VALID,0.264062,
2009-09-09, 01:14:04,VALID,1003.89,VALID,0,VALID,93.4004,VALID,0,VALID,24.0521,VALID,12,VALID,0.376563,
2009-09-09, 01:15:04,VALID,1003.9,VALID,0,VALID,93.4462,VALID,0,VALID,24.0521,VALID,7,VALID,0.513281,
2009-09-09, 01:16:04,VALID,1003.9,VALID,0,VALID,93.4538,VALID,0,VALID,24.0929,VALID,7,VALID,0.45,
2009-09-09, 01:17:04,VALID,1003.88,VALID,0,VALID,93.4843,VALID,0,VALID,24.13,VALID,7,VALID,0.448438,
2009-09-09, 01:18:04,VALID,1003.87,VALID,0,VALID,93.5377,VALID,0,VALID,24.1494,VALID,360,VALID,0.617188,
2009-09-09, 01:19:04,VALID,1003.89,VALID,0,VALID,93.469,VALID,0,VALID,24.1902,VALID,353,VALID,0.564062,
2009-09-09, 01:20:04,VALID,1003.91,VALID,0,VALID,93.3699,VALID,0,VALID,24.1884,VALID,352,VALID,0.654297,
2009-09-09, 01:21:04,VALID,1003.91,VALID,0,VALID,93.2554,VALID,0,VALID,24.2097,VALID,352,VALID,0.475,
2009-09-09, 01:22:04,VALID,1003.89,VALID,0,VALID,93.1639,VALID,0,VALID,24.2291,VALID,352,VALID,0.319922,
2009-09-09, 01:23:04,VALID,1003.89,VALID,0,VALID,93.0723,VALID,0,VALID,24.2486,VALID,352,VALID,0.346484,
2009-09-09, 01:24:04,VALID,1003.89,VALID,0,VALID,93.0495,VALID,0,VALID,24.2273,VALID,352,VALID,0.332031,
2009-09-09, 01:25:04,VALID,1003.91,VALID,0,VALID,93.0571,VALID,0,VALID,24.2486,VALID,352,VALID,0.320313,
2009-09-09, 01:26:04,VALID,1003.89,VALID,0,VALID,93.0571,VALID,0,VALID,24.2468,VALID,353,VALID,0.588281,
2009-09-09, 01:27:04,VALID,1003.91,VALID,0,VALID,92.9655,VALID,0,VALID,24.2662,VALID,352,VALID,0.527734,
2009-09-09, 01:28:04,VALID,1003.92,VALID,0,VALID,92.9732,VALID,0,VALID,24.3052,VALID,346,VALID,0.554297,
2009-09-09, 01:29:04,VALID,1003.95,VALID,0,VALID,92.8206,VALID,0,VALID,24.3459,VALID,348,VALID,0.589844,
2009-09-09, 01:30:04,VALID,1003.9,VALID,0,VALID,92.6833,VALID,0,VALID,24.383,VALID,352,VALID,0.539844,
2009-09-09, 01:31:04,VALID,1003.89,VALID,0,VALID,92.4544,VALID,0,VALID,24.4822,VALID,353,VALID,0.650781,
2009-09-09, 01:32:04,VALID,1003.91,VALID,0,VALID,92.1645,VALID,0,VALID,24.5212,VALID,354,VALID,0.562891,
2009-09-09, 01:33:04,VALID,1003.89,VALID,0,VALID,91.8288,VALID,0,VALID,24.5388,VALID,352,VALID,0.335547,
2009-09-09, 01:34:04,VALID,1003.88,VALID,0,VALID,91.5847,VALID,0,VALID,24.599,VALID,352,VALID,0.507422,
2009-09-09, 01:35:04,VALID,1003.83,VALID,0,VALID,91.4169,VALID,0,VALID,24.6166,VALID,349,VALID,0.876562,
2009-09-09, 01:36:04,VALID,1003.82,VALID,0,VALID,91.1651,VALID,0,VALID,24.6769,VALID,353,VALID,0.745313,
2009-09-09, 01:37:04,VALID,1003.81,VALID,0,VALID,90.8905,VALID,0,VALID,24.6166,VALID,353,VALID,0.653125,
2009-09-09, 01:38:04,VALID,1003.8,VALID,0,VALID,90.921,VALID,0,VALID,24.6185,VALID,353,VALID,0.694531,
2009-09-09, 01:39:04,VALID,1003.81,VALID,0,VALID,91.127,VALID,0,VALID,24.5972,VALID,340,VALID,0.723437,
2009-09-09, 01:40:04,VALID,1003.79,VALID,0,VALID,91.1193,VALID,0,VALID,24.5777,VALID,337,VALID,0.369531,
2009-09-09, 01:41:04,VALID,1003.79,VALID,0,VALID,91.0125,VALID,0,VALID,24.6185,VALID,340,VALID,0.0816406,
2009-09-09, 01:42:04,VALID,1003.78,VALID,0,VALID,91.1117,VALID,0,VALID,24.6185,VALID,340,VALID,0.2375,
2009-09-09, 01:43:04,VALID,1003.77,VALID,0,VALID,91.1575,VALID,0,VALID,24.6361,VALID,336,VALID,0.505469,
2009-09-09, 01:44:04,VALID,1003.76,VALID,0,VALID,91.0431,VALID,0,VALID,24.7159,VALID,339,VALID,0.244141,
2009-09-09, 01:45:04,VALID,1003.77,VALID,0,VALID,90.8295,VALID,0,VALID,24.7548,VALID,339,VALID,0.141797,
2009-09-09, 01:46:04,VALID,1003.78,VALID,0,VALID,90.7074,VALID,0,VALID,24.7724,VALID,2,VALID,0.55625,
2009-09-09, 01:47:04,VALID,1003.8,VALID,0,VALID,90.4785,VALID,0,VALID,24.8308,VALID,339,VALID,0.195313,
2009-09-09, 01:48:04,VALID,1003.83,VALID,0,VALID,90.2191,VALID,0,VALID,24.9106,VALID,356,VALID,0.769141,
2009-09-09, 01:49:04,VALID,1003.8,VALID,0,VALID,90.0818,VALID,0,VALID,24.9495,VALID,352,VALID,0.430469,
2009-09-09, 01:50:04,VALID,1003.79,VALID,0,VALID,89.914,VALID,0,VALID,24.969,VALID,352,VALID,0.626562,
2009-09-09, 01:51:04,VALID,1003.78,VALID,0,VALID,89.769,VALID,0,VALID,25.0079,VALID,344,VALID,0.536328,
2009-09-09, 01:52:04,VALID,1003.77,VALID,0,VALID,89.6775,VALID,0,VALID,25.0079,VALID,344,VALID,0.382031,
2009-09-09, 01:53:04,VALID,1003.76,VALID,0,VALID,89.6927,VALID,0,VALID,24.969,VALID,344,VALID,0.571484,
2009-09-09, 01:54:04,VALID,1003.79,VALID,0,VALID,89.975,VALID,0,VALID,24.9885,VALID,344,VALID,0.6,
2009-09-09, 01:55:04,VALID,1003.79,VALID,0,VALID,89.9445,VALID,0,VALID,24.969,VALID,344,VALID,0.388281,
2009-09-09, 01:56:04,VALID,1003.78,VALID,0,VALID,90.036,VALID,0,VALID,24.9476,VALID,344,VALID,0.171484,
2009-09-09, 01:57:04,VALID,1003.77,VALID,0,VALID,89.9598,VALID,0,VALID,24.9476,VALID,344,VALID,0.551562,
2009-09-09, 01:58:04,VALID,1003.76,VALID,0,VALID,89.9979,VALID,0,VALID,24.9087,VALID,343,VALID,0.224219,
2009-09-09, 01:59:04,VALID,1003.74,VALID,0,VALID,90.3031,VALID,0,VALID,24.8892,VALID,27,VALID,0.411719,
2009-09-09, 02:00:04,VALID,1003.72,VALID,0,VALID,90.5853,VALID,0,VALID,24.8892,VALID,27,VALID,0.359375,
2009-09-09, 02:01:04,VALID,1003.72,VALID,0,VALID,90.5472,VALID,0,VALID,24.93,VALID,27,VALID,0.191797,
2009-09-09, 02:02:04,VALID,1003.73,VALID,0,VALID,90.4862,VALID,0,VALID,24.9087,VALID,27,VALID,0.0578125,
2009-09-09, 02:03:04,VALID,1003.73,VALID,0,VALID,90.3488,VALID,0,VALID,24.9087,VALID,27,VALID,0.0195313,
2009-09-09, 02:04:04,VALID,1003.74,VALID,0,VALID,90.5853,VALID,0,VALID,24.9106,VALID,351,VALID,0.440625,
2009-09-09, 02:05:04,VALID,1003.73,VALID,0,VALID,90.3641,VALID,0,VALID,24.9087,VALID,341,VALID,0.306641,
2009-09-09, 02:06:04,VALID,1003.72,VALID,0,VALID,90.509,VALID,0,VALID,24.9087,VALID,341,VALID,0.167578,
2009-09-09, 02:07:04,VALID,1003.71,VALID,0,VALID,90.2115,VALID,0,VALID,24.93,VALID,341,VALID,0.332422,
2009-09-09, 02:08:04,VALID,1003.73,VALID,0,VALID,90.1886,VALID,0,VALID,24.8697,VALID,341,VALID,0.307813,
2009-09-09, 02:09:04,VALID,1003.71,VALID,0,VALID,90.4633,VALID,0,VALID,24.8308,VALID,341,VALID,0.278125,
2009-09-09, 02:10:04,VALID,1003.69,VALID,0,VALID,90.4862,VALID,0,VALID,24.8113,VALID,341,VALID,0.408984,
2009-09-09, 02:11:04,VALID,1003.65,VALID,0,VALID,90.5396,VALID,0,VALID,24.7529,VALID,341,VALID,0.284375,
2009-09-09, 02:12:04,VALID,1003.66,VALID,0,VALID,90.7226,VALID,0,VALID,24.714,VALID,341,VALID,0.23125,
2009-09-09, 02:13:04,VALID,1003.63,VALID,0,VALID,90.9286,VALID,0,VALID,24.6964,VALID,341,VALID,0.278906,
2009-09-09, 02:14:04,VALID,1003.6,VALID,0,VALID,91.0812,VALID,0,VALID,24.6185,VALID,341,VALID,0.408594,
2009-09-09, 02:15:04,VALID,1003.55,VALID,0,VALID,91.2948,VALID,0,VALID,24.5388,VALID,341,VALID,0.376172,
2009-09-09, 02:16:04,VALID,1003.57,VALID,0,VALID,91.4855,VALID,0,VALID,24.4998,VALID,341,VALID,0.355078,
2009-09-09, 02:17:04,VALID,1003.57,VALID,0,VALID,91.8594,VALID,0,VALID,24.5017,VALID,341,VALID,0.466797,
2009-09-09, 02:18:04,VALID,1003.52,VALID,0,VALID,92.0424,VALID,0,VALID,24.4609,VALID,343,VALID,0.373437,
2009-09-09, 02:19:04,VALID,1003.51,VALID,0,VALID,92.2561,VALID,0,VALID,24.4414,VALID,343,VALID,0.205859,
2009-09-09, 02:20:04,VALID,1003.53,VALID,0,VALID,92.401,VALID,0.100563,VALID,24.4414,VALID,343,VALID,0.203125,
2009-09-09, 02:21:04,VALID,1003.48,VALID,0,VALID,92.4849,VALID,0,VALID,24.4628,VALID,343,VALID,0.0128906,
2009-09-09, 02:22:04,VALID,1003.48,VALID,0,VALID,92.5154,VALID,0,VALID,24.5017,VALID,343,VALID,0,
2009-09-09, 02:23:04,VALID,1003.48,VALID,0,VALID,92.5612,VALID,0,VALID,24.5017,VALID,345,VALID,0.358594,
2009-09-09, 02:24:04,VALID,1003.45,VALID,0,VALID,92.5078,VALID,0,VALID,24.5582,VALID,343,VALID,0.653125,
2009-09-09, 02:25:04,VALID,1003.44,VALID,0,VALID,92.3095,VALID,0,VALID,24.6166,VALID,343,VALID,0.504687,
2009-09-09, 02:26:04,VALID,1003.45,VALID,0,VALID,92.0119,VALID,0,VALID,24.6964,VALID,345,VALID,0.666016,
2009-09-09, 02:27:04,VALID,1003.46,VALID,0,VALID,91.7068,VALID,0,VALID,24.675,VALID,359,VALID,0.320703,
2009-09-09, 02:28:04,VALID,1003.48,VALID,0,VALID,91.1575,VALID,0,VALID,24.6361,VALID,359,VALID,0.367188,
2009-09-09, 02:29:04,VALID,1003.47,VALID,0,VALID,91.0659,VALID,0.100563,VALID,24.5582,VALID,359,VALID,0.330859,
2009-09-09, 02:30:04,VALID,1003.47,VALID,0,VALID,91.2796,VALID,0,VALID,24.5601,VALID,6,VALID,0.142188,
2009-09-09, 02:31:04,VALID,1003.48,VALID,0,VALID,91.3558,VALID,0,VALID,24.5388,VALID,6,VALID,0.135937,
2009-09-09, 02:32:04,VALID,1003.51,VALID,0,VALID,91.5084,VALID,0,VALID,24.5388,VALID,6,VALID,0.0121094,
2009-09-09, 02:33:04,VALID,1003.52,VALID,0,VALID,91.5542,VALID,0,VALID,24.5601,VALID,6,VALID,0.00273437,
2009-09-09, 02:34:04,VALID,1003.52,VALID,0,VALID,91.5771,VALID,0,VALID,24.5796,VALID,6,VALID,0,
2009-09-09, 02:35:04,VALID,1003.53,VALID,0,VALID,91.6076,VALID,0,VALID,24.5972,VALID,6,VALID,0.239063,
2009-09-09, 02:36:04,VALID,1003.54,VALID,0,VALID,91.4474,VALID,0,VALID,24.638,VALID,6,VALID,0.315234,
2009-09-09, 02:37:04,VALID,1003.54,VALID,0,VALID,91.2567,VALID,0,VALID,24.6361,VALID,6,VALID,0.493359,
2009-09-09, 02:38:04,VALID,1003.55,VALID,0,VALID,91.127,VALID,0,VALID,24.6361,VALID,6,VALID,0.146094,
2009-09-09, 02:39:04,VALID,1003.57,VALID,0,VALID,91.0812,VALID,0,VALID,24.6574,VALID,6,VALID,0.300781,
2009-09-09, 02:40:04,VALID,1003.55,VALID,0,VALID,91.0583,VALID,0,VALID,24.6574,VALID,6,VALID,0,
2009-09-09, 02:41:04,VALID,1003.55,VALID,0,VALID,91.0049,VALID,0,VALID,24.6556,VALID,6,VALID,0,
2009-09-09, 02:42:04,VALID,1003.59,VALID,0,VALID,90.8829,VALID,0,VALID,24.6769,VALID,6,VALID,0,
2009-09-09, 02:43:04,VALID,1003.54,VALID,0,VALID,90.7684,VALID,0,VALID,24.6361,VALID,6,VALID,0,
2009-09-09, 02:44:04,VALID,1003.56,VALID,0,VALID,90.776,VALID,0,VALID,24.599,VALID,11,VALID,0,
2009-09-09, 02:45:04,VALID,1003.57,VALID,0,VALID,90.9897,VALID,0,VALID,24.5777,VALID,4,VALID,0,
2009-09-09, 02:46:04,VALID,1003.58,VALID,0,VALID,90.9668,VALID,0,VALID,24.5582,VALID,4,VALID,0,
2009-09-09, 02:47:04,VALID,1003.59,VALID,0,VALID,91.1346,VALID,0,VALID,24.5406,VALID,4,VALID,0,
2009-09-09, 02:48:04,VALID,1003.6,VALID,0,VALID,91.2567,VALID,0,VALID,24.5193,VALID,4,VALID,0,
2009-09-09, 02:49:04,VALID,1003.59,VALID,0,VALID,91.3635,VALID,0,VALID,24.5406,VALID,4,VALID,0,
2009-09-09, 02:50:04,VALID,1003.61,VALID,0,VALID,91.3101,VALID,0,VALID,24.5193,VALID,4,VALID,0,
2009-09-09, 02:51:04,VALID,1003.62,VALID,0,VALID,91.3253,VALID,0,VALID,24.5017,VALID,4,VALID,0,
2009-09-09, 02:52:04,VALID,1003.62,VALID,0,VALID,91.5161,VALID,0,VALID,24.4804,VALID,4,VALID,0,
2009-09-09, 02:53:04,VALID,1003.65,VALID,0,VALID,91.5923,VALID,0,VALID,24.5212,VALID,4,VALID,0,
2009-09-09, 02:54:04,VALID,1003.61,VALID,0,VALID,91.5008,VALID,0,VALID,24.5406,VALID,4,VALID,0,
2009-09-09, 02:55:04,VALID,1003.6,VALID,0,VALID,91.3101,VALID,0,VALID,24.5017,VALID,4,VALID,0,
2009-09-09, 02:56:04,VALID,1003.59,VALID,0,VALID,91.5389,VALID,0,VALID,24.4414,VALID,4,VALID,0,
2009-09-09, 02:57:04,VALID,1003.6,VALID,0,VALID,91.6076,VALID,0,VALID,24.4628,VALID,4,VALID,0,
2009-09-09, 02:58:04,VALID,1003.61,VALID,0,VALID,91.6915,VALID,0,VALID,24.4043,VALID,4,VALID,0,
2009-09-09, 02:59:04,VALID,1003.61,VALID,0,VALID,91.8899,VALID,0,VALID,24.4043,VALID,4,VALID,0,
2009-09-09, 03:00:04,VALID,1003.58,VALID,0,VALID,91.989,VALID,0,VALID,24.3441,VALID,4,VALID,0,
2009-09-09, 03:01:04,VALID,1003.6,VALID,0,VALID,92.0196,VALID,0,VALID,24.3052,VALID,4,VALID,0,
2009-09-09, 03:02:04,VALID,1003.59,VALID,0,VALID,92.0806,VALID,0,VALID,24.2662,VALID,4,VALID,0,
2009-09-09, 03:03:04,VALID,1003.6,VALID,0,VALID,92.3095,VALID,0,VALID,24.2486,VALID,4,VALID,0,
2009-09-09, 03:04:04,VALID,1003.58,VALID,0,VALID,92.4315,VALID,0,VALID,24.2273,VALID,4,VALID,0,
2009-09-09, 03:05:04,VALID,1003.57,VALID,0,VALID,92.4468,VALID,0,VALID,24.2097,VALID,4,VALID,0,
2009-09-09, 03:06:04,VALID,1003.58,VALID,0,VALID,92.5688,VALID,0,VALID,24.1707,VALID,4,VALID,0,
2009-09-09, 03:07:04,VALID,1003.62,VALID,0,VALID,92.7977,VALID,0,VALID,24.1707,VALID,4,VALID,0.00703125,
2009-09-09, 03:08:04,VALID,1003.6,VALID,0,VALID,93.0189,VALID,0,VALID,24.1494,VALID,3,VALID,0.457422,
2009-09-09, 03:09:04,VALID,1003.59,VALID,0,VALID,93.1257,VALID,0,VALID,24.1707,VALID,1,VALID,0.394531,
2009-09-09, 03:10:04,VALID,1003.58,VALID,0,VALID,93.2402,VALID,0,VALID,24.1707,VALID,355,VALID,0.574219,
2009-09-09, 03:11:04,VALID,1003.58,VALID,0,VALID,93.141,VALID,0,VALID,24.1707,VALID,353,VALID,0.566016,
2009-09-09, 03:12:04,VALID,1003.58,VALID,0,VALID,93.0418,VALID,0,VALID,24.1513,VALID,353,VALID,0.437891,
2009-09-09, 03:13:04,VALID,1003.58,VALID,0,VALID,93.1334,VALID,0,VALID,24.1513,VALID,354,VALID,0.430469,
2009-09-09, 03:14:04,VALID,1003.54,VALID,0,VALID,93.0876,VALID,0,VALID,24.1707,VALID,354,VALID,0.522266,
2009-09-09, 03:15:04,VALID,1003.52,VALID,0,VALID,92.9274,VALID,0,VALID,24.1902,VALID,354,VALID,0.380469,
2009-09-09, 03:16:04,VALID,1003.54,VALID,0,VALID,92.8969,VALID,0,VALID,24.1707,VALID,337,VALID,0.382422,
2009-09-09, 03:17:04,VALID,1003.54,VALID,0,VALID,92.7977,VALID,0,VALID,24.13,VALID,337,VALID,0.184766,
2009-09-09, 03:18:04,VALID,1003.51,VALID,0,VALID,92.7596,VALID,0,VALID,24.1318,VALID,337,VALID,0.267969,
2009-09-09, 03:19:04,VALID,1003.51,VALID,0,VALID,92.6909,VALID,0,VALID,24.0716,VALID,337,VALID,0.401563,
2009-09-09, 03:20:04,VALID,1003.52,VALID,0,VALID,92.7443,VALID,0,VALID,24.0521,VALID,337,VALID,0.181641,
2009-09-09, 03:21:04,VALID,1003.5,VALID,0,VALID,92.8282,VALID,0,VALID,24.0345,VALID,337,VALID,0.28125,
2009-09-09, 03:22:04,VALID,1003.5,VALID,0,VALID,92.8816,VALID,0,VALID,24.015,VALID,337,VALID,0.257031,
2009-09-09, 03:23:04,VALID,1003.52,VALID,0,VALID,93.0952,VALID,0,VALID,23.9937,VALID,337,VALID,0.335156,
2009-09-09, 03:24:04,VALID,1003.54,VALID,0,VALID,93.2325,VALID,0,VALID,23.9937,VALID,340,VALID,0.517969,
2009-09-09, 03:25:04,VALID,1003.54,VALID,0,VALID,93.3394,VALID,0,VALID,24.0345,VALID,340,VALID,0.195313,
2009-09-09, 03:26:04,VALID,1003.56,VALID,0,VALID,93.2936,VALID,0,VALID,23.9937,VALID,343,VALID,0.625,
2009-09-09, 03:27:04,VALID,1003.58,VALID,0,VALID,93.4004,VALID,0,VALID,23.9937,VALID,16,VALID,0.634375,
2009-09-09, 03:28:04,VALID,1003.59,VALID,0,VALID,93.3546,VALID,0,VALID,24.015,VALID,17,VALID,0.537109,
2009-09-09, 03:29:04,VALID,1003.6,VALID,0,VALID,93.2783,VALID,0,VALID,24.015,VALID,16,VALID,0.213672,
2009-09-09, 03:30:04,VALID,1003.6,VALID,0,VALID,93.2936,VALID,0,VALID,23.9937,VALID,17,VALID,0.127344,
2009-09-09, 03:31:04,VALID,1003.62,VALID,0,VALID,93.2249,VALID,0,VALID,23.9955,VALID,17,VALID,0.443359,
2009-09-09, 03:32:04,VALID,1003.59,VALID,0,VALID,93.1868,VALID,0,VALID,23.9548,VALID,17,VALID,0.364062,
2009-09-09, 03:33:04,VALID,1003.61,VALID,0,VALID,93.2249,VALID,0,VALID,23.9353,VALID,16,VALID,0.326172,
2009-09-09, 03:34:04,VALID,1003.58,VALID,0,VALID,93.3012,VALID,0,VALID,23.9566,VALID,17,VALID,0.327344,
2009-09-09, 03:35:04,VALID,1003.56,VALID,0,VALID,93.3241,VALID,0,VALID,23.9353,VALID,17,VALID,0.348047,
2009-09-09, 03:36:04,VALID,1003.53,VALID,0,VALID,93.3012,VALID,0,VALID,23.9371,VALID,17,VALID,0.23125,
2009-09-09, 03:37:04,VALID,1003.54,VALID,0,VALID,93.3165,VALID,0,VALID,23.8964,VALID,17,VALID,0.0332031,
2009-09-09, 03:38:04,VALID,1003.52,VALID,0,VALID,93.3165,VALID,0,VALID,23.8769,VALID,17,VALID,0.0410156,
2009-09-09, 03:39:04,VALID,1003.54,VALID,0,VALID,93.347,VALID,0,VALID,23.8575,VALID,16,VALID,0.0203125,
2009-09-09, 03:40:04,VALID,1003.56,VALID,0,VALID,93.3928,VALID,0,VALID,23.8787,VALID,17,VALID,0.194531,
2009-09-09, 03:41:04,VALID,1003.55,VALID,0,VALID,93.5301,VALID,0,VALID,23.8575,VALID,17,VALID,0.00820312,
2009-09-09, 03:42:04,VALID,1003.53,VALID,0,VALID,93.5835,VALID,0,VALID,23.8575,VALID,17,VALID,0,
2009-09-09, 03:43:04,VALID,1003.54,VALID,0,VALID,93.5758,VALID,0,VALID,23.8964,VALID,17,VALID,0,
2009-09-09, 03:44:04,VALID,1003.55,VALID,0,VALID,93.5072,VALID,0.100563,VALID,23.8964,VALID,17,VALID,0.337109,
2009-09-09, 03:45:04,VALID,1003.56,VALID,0,VALID,93.4385,VALID,0.100563,VALID,23.8964,VALID,17,VALID,0.375,
2009-09-09, 03:46:04,VALID,1003.52,VALID,0,VALID,93.4309,VALID,0,VALID,23.8964,VALID,17,VALID,0.274609,
2009-09-09, 03:47:04,VALID,1003.54,VALID,0,VALID,93.3928,VALID,0,VALID,23.8769,VALID,17,VALID,0.371875,
2009-09-09, 03:48:04,VALID,1003.54,VALID,0,VALID,93.3928,VALID,0,VALID,23.8575,VALID,16,VALID,0.335547,